Showing default

ZHUHAI-1 03B, 44536

Orbit data source: Space-Track

ZHUHAI-1 03B, 44536 is a payload satellite owned by Zhuhai Orbita (CN) in SSO that was launched on Thu, 19 Sep 2019 UTC via a CHANG ZHENG 11 launch vehicle from the Jiuquan Satellite Launch Center, China (JSC). Payload-class satellites include a variety of spacecraft equipped with specific instruments for various scientific and technological missions. These include communications satellites like Starlink; space stations such as the ISS; scientific satellites like the Hubble; Earth observation satellites from companies like Planet Labs, Umbra, and HawkEye 360; GPS; miniature CubeSats for education and research; and military/defense satellites.

Loading next visibility...
Identifier
44536, 2019-060C
Orbit
SSO
Country
Flag of CNCN / PRC
Related business
Manufacturer
Harbin
Mission
Operational Commercial Imaging
Bus & Motor
OHS-1, Unknown motor
Mass
69 kg wet, ~69 kg dry
Launch date (UTC)
2019-09-19 (7 years ago)
Launch vehicle
CHANG ZHENG 11
Launch site
Jiuquan Satellite Launch Center, China (JSC)
Object type
Payload
Rocket body
Debris
Shape & HBR
Box, 0.4 m
Radar Cross Section
0.280 m², Medium (>0.1 m² and < 1m²)

Expand to show TLE details & history
Last TLE update: 17 hours ago

TLE from 17 hours ago
0 ZHUHAI-1 03B
1 44536U 19060C   26255.29626282  .00030241  00000-0  39116-3 0  9998
2 44536  97.5613  58.1437 0007381   2.4623 357.6667 15.58852176389872
Epoch: 2026-09-12T07:06Z
TLE epoch observation values (Epoch: 2026-09-12T07:06:37.107Z)
Latitude
-0.0001°
Longitude
-39.8182°
Altitude
389.123 km
Speed
7.679 km/s
True Right ascension
03h 52m 34s
True Declination
0° 00' 00"
Sunlit
Object was in full shadow at epoch
Visualization orbit readout
Latitude
Unknown
Longitude
Unknown
Altitude
Unknown
Speed
Unknown
Apparent Right ascension
Unknown
Apparent Declination
Unknown
Sunlit
N/A
Visualization observer readout
Local Sidereal Time
16:23:40
Azimuth
Unknown
Elevation
Unknown
Doppler factor
Unknown
Orbital elements
Apogee altitude
392.893 km
Perigee altitude
382.905 km
Semi-major axis
6,766.036 km
Eccentricity
0.00074
Inclination
97.5613°
RAAN
58.1437°
Arg. of periapsis
2.4623°
True anomaly
357.66325°
Mean anomaly
357.6667°
Eccentric anomaly
357.66498°
Mean motion
3.89979 °/min
Orbital period
92.31 mins
BSTAR
0.00039116
Loading maneuver chart data...
Computing Atmospheric mass density...
Loading historical data...
Loading historical data...
Loading historical data...
Loading historical data...
Loading historical data...
Loading historical data...
Loading historical data...

Documentation

Showing up to 5 results
|